Regional Weather Roundup
Issued by NWS

Home | Current Version | Previous Version | Text Only | Print | Product List | Glossary Off
Versions: 1 2 3 4 5 6 7 8 9 10 11 12 13 14 15 16 17 18 19 20 21 22 23 24 25 26 27 28 29 30 31 32 33 34 35 36 37 38 39 40 41 42 43 44 45 46 47 48 49 50

000
ASUS43 KIND 231609
RWRIN

WEATHER ROUNDUP FOR INDIANA
NATIONAL WEATHER SERVICE INDIANAPOLIS IN
1100 AM EST THU FEB 23 2017

NOTE: "FAIR" INDICATES FEW OR NO CLOUDS BELOW 12,000 FEET WITH NO
SIGNIFICANT WEATHER AND/OR OBSTRUCTIONS TO VISIBILITY.

* - STATION DOES NOT REPORT WEATHER SUCH AS PRECIPITATION OR FOG.

+ - STATION NOT QUALITY CONTROLLED BY THE NATIONAL WEATHER SERVICE.
    USE DATA WITH CAUTION...ESPECIALLY DEWPOINT AND RELATIVE
    HUMIDITY OBSERVATIONS.

INZ001>003-010>013-019-020-231700-
NORTHWEST INDIANA

CITY           SKY/WX    TMP DP  RH WIND       PRES   REMARKS
GARY /AIRPORT/ MOSUNNY   54  41  62 N10       29.81R
KNOX *+        MOSUNNY   54  32  43 N9        29.77S
LA PORTE +     SUNNY     49  44  80 N13       29.79R
MICHIGAN CITY+ CLOUDY    46  41  81 N12       29.81R
MONTICELLO +   SUNNY     58  49  70 CALM      29.76S
RENSSELAER +   SUNNY     55  50  82 N5        29.77F
VALPARAISO     SUNNY     54  45  71 N9        29.79R

$$

LMZ046-743>745-231700-
SOUTHERN LAKE MICHIGAN

STATION/POSITION TIME  TEMP    WIND        PRES    WAVE
                       AIR SEA DIR/SP/G            HT
                 (UTC) (F)     (DEG/KT/KT) (MB)    (FT)
BURNS HARBOR     1530   43      20/  4/  7 1010.2R
MICHIGAN CITY    1540   41     360/  5/  6   N/A

$$

INZ004-005-014>016-021>024-231700-
NORTH CENTRAL INDIANA

CITY           SKY/WX    TMP DP  RH WIND       PRES   REMARKS
ELKHART        MOSUNNY   54  45  71 W8        29.77R
GOSHEN         MOSUNNY   56  46  69 NW7       29.76R
LOGANSPORT +   SUNNY     59  50  72 CALM      29.78S
PERU/GRISSOM   MOSUNNY   59  57  94 NW3       29.76S
ROCHESTER +    SUNNY     61  48  63 CALM      29.77R
SOUTH BEND     PTSUNNY   50  43  77 NW9       29.79R
WARSAW +       SUNNY     55  46  71 CALM      29.76R

$$

INZ006>009-017-018-025>027-231700-
NORTHEAST INDIANA

CITY           SKY/WX    TMP DP  RH WIND       PRES   REMARKS
ANGOLA *+      SUNNY     59  50  72 W5        29.74S
AUBURN +       SUNNY     59  48  67 CALM      29.76F
FORT WAYNE     MOSUNNY   60  51  72 W6        29.77S
HUNTINGTON +   SUNNY     59  52  77 W5        29.77S
KENDALLVILLE + SUNNY     57  50  75 W5        29.75S

$$

INZ028-029-035-036-043>045-051>053-231700-
WEST CENTRAL INDIANA

CITY           SKY/WX    TMP DP  RH WIND       PRES   REMARKS
LAFAYETTE      MOSUNNY   57  54  89 CALM      29.77R
TERRE HAUTE    PTSUNNY   62  55  77 S8        29.77S

$$

INZ030>032-037>040-046>048-054>057-064-065-231700-
CENTRAL INDIANA

CITY           SKY/WX    TMP DP  RH WIND       PRES   REMARKS
CP ATTERBURY + CLOUDY    64  54  68 SW10      29.79F
COLUMBUS       SUNNY     63  59  88 S6        29.79F
FRANKFORT +    CLOUDY    61  55  82 SW5       29.80R
GREENWOOD *+   CLOUDY    61  57  87 W6        29.80S
INDIANAPOLIS   CLOUDY    61  56  83 SW10      29.78S
-EAGLE CREEK   CLOUDY    60  55  83 W3        29.78R
KOKOMO +       SUNNY     60  52  74 VRB6      29.78S
MARION +       CLOUDY    59  54  83 SW8       29.79R
MT COMFORT *+  CLOUDY    59  55  88 SW6       29.79S
SHELBYVILLE    PTSUNNY   63  56  78 SW9       29.78F
ZIONSVILLE +   CLOUDY    56  55  94 SW6       29.79S FOG

$$

INZ033-034-041-042-049-050-058-059-231700-
EAST CENTRAL INDIANA

CITY           SKY/WX    TMP DP  RH WIND       PRES   REMARKS
MUNCIE         CLOUDY    60  55  83 SW7       29.79R

$$

INZ060-061-067>069-081>083-085>088-231700-
SOUTHWEST INDIANA

CITY           SKY/WX    TMP DP  RH WIND       PRES   REMARKS
EVANSVILLE     PTSUNNY   68  57  68 VRB5      29.80F
HUNTINGBURG *+ CLOUDY    64  57  78 S10       29.81F
WASHINGTON +   MOSUNNY   64  57  79 S10       29.79S

$$

INZ062-063-066-070>080-084-089>092-231700-
SOUTH CENTRAL AND SOUTHEAST INDIANA

CITY           SKY/WX    TMP DP  RH WIND       PRES   REMARKS
BEDFORD +      CLOUDY   N/A N/A N/A S7        29.78F
BLOOMINGTON    PTSUNNY   66  54  65 SW13      29.78F
MADISON *+     MOSUNNY   64  55  72 S10       29.83F
NORTH VERNON + MOSUNNY  N/A N/A N/A S10G16    29.81R
SEYMOUR +      MOSUNNY   68  57  68 SW12      29.79F

$$





USA.gov is the U.S. government's official web portal to all federal, state and local government web resources and services.